When you browse on this site, cookies collect data to enhance your experience and personalize the content and advertising you see.
Visit our Privacy Policy to learn more. By continuing to use the site, you agree to this use of cookies and data.
  • In Austria
  • List of Countries
  • For 7 days
  • Water Temperature
  • Satellite Maps
  • Weather Map
  • News
  • Weather Widgets
  • user-avatar
    Login

    Hourly Weather Lyudenevichi

    Today, 16 July, Tuesday

    Time Temperature Precipitation Wind Pressure Humidity
    00:00 +13°C° 0 mm 1 mps 746 mmHg 91%
    01:00 +13°C° 0 mm 1 mps 746 mmHg 92%
    02:00 +12°C° 0 mm 1 mps 746 mmHg 91%
    03:00 +12°C° 0 mm 1 mps 746 mmHg 91%
    04:00 +12°C° 0 mm 1 mps 746 mmHg 91%
    05:00 +12°C° 0 mm 1 mps 746 mmHg 90%
    06:00 +14°C° 0 mm 1 mps 746 mmHg 84%
    07:00 +16°C° 0 mm 1 mps 746 mmHg 78%
    08:00 +19°C° 0 mm 1 mps 746 mmHg 72%
    09:00 +19°C° 0.2 mm 2 mps 746 mmHg 67%
    10:00 +21°C° 0.2 mm 2 mps 745 mmHg 62%
    11:00 +23°C° 0.2 mm 2 mps 745 mmHg 56%
    12:00 +23°C° 0.1 mm 2 mps 745 mmHg 55%
    13:00 +24°C° 0.1 mm 2 mps 744 mmHg 55%
    14:00 +24°C° 0.1 mm 3 mps 744 mmHg 54%
    15:00 +24°C° 0.3 mm 3 mps 744 mmHg 59%
    16:00 +22°C° 0.3 mm 3 mps 744 mmHg 64%
    17:00 +22°C° 0.3 mm 3 mps 744 mmHg 70%
    18:00 +20°C° 0.4 mm 2 mps 743 mmHg 76%
    19:00 +18°C° 0.4 mm 2 mps 743 mmHg 82%
    20:00 +17°C° 0.4 mm 2 mps 743 mmHg 88%
    21:00 +16°C° 0.3 mm 2 mps 743 mmHg 90%
    22:00 +14°C° 0.3 mm 3 mps 743 mmHg 92%
    23:00 +13°C° 0.3 mm 3 mps 743 mmHg 94%

    Tomorrow, 17 July, Wednesday

    Time Temperature Precipitation Wind Pressure Humidity
    00:00 +13°C° 0.1 mm 3 mps 743 mmHg 94%
    01:00 +12°C° 0.1 mm 3 mps 743 mmHg 94%
    02:00 +11°C° 0.1 mm 3 mps 743 mmHg 94%
    03:00 +11°C° 0 mm 3 mps 743 mmHg 96%
    04:00 +10°C° 0 mm 3 mps 743 mmHg 97%
    05:00 +10°C° 0 mm 2 mps 743 mmHg 98%
    06:00 +11°C° 0 mm 3 mps 743 mmHg 95%
    07:00 +12°C° 0 mm 3 mps 743 mmHg 91%
    08:00 +14°C° 0 mm 3 mps 743 mmHg 88%
    09:00 +14°C° 0.5 mm 3 mps 743 mmHg 85%
    10:00 +15°C° 0.5 mm 4 mps 743 mmHg 81%
    11:00 +17°C° 0.5 mm 4 mps 743 mmHg 77%
    12:00 +18°C° 0.4 mm 4 mps 743 mmHg 74%
    13:00 +18°C° 0.4 mm 4 mps 742 mmHg 70%
    14:00 +18°C° 0.4 mm 4 mps 742 mmHg 66%
    15:00 +18°C° 0.6 mm 4 mps 742 mmHg 71%
    16:00 +18°C° 0.6 mm 4 mps 742 mmHg 76%
    17:00 +18°C° 0.6 mm 4 mps 742 mmHg 80%
    18:00 +17°C° 0.6 mm 3 mps 742 mmHg 84%
    19:00 +16°C° 0.6 mm 3 mps 742 mmHg 88%
    20:00 +14°C° 0.6 mm 3 mps 742 mmHg 92%
    21:00 +13°C° 0 mm 3 mps 742 mmHg 93%
    22:00 +12°C° 0 mm 3 mps 742 mmHg 95%
    23:00 +11°C° 0 mm 3 mps 742 mmHg 96%

    Day after tomorrow, 18 July, Thursday

    Time Temperature Precipitation Wind Pressure Humidity
    00:00 +11°C° 0 mm 3 mps 742 mmHg 97%
    01:00 +11°C° 0 mm 3 mps 742 mmHg 97%
    02:00 +11°C° 0 mm 3 mps 742 mmHg 97%
    03:00 +10°C° 0 mm 3 mps 742 mmHg 98%
    04:00 +10°C° 0 mm 3 mps 743 mmHg 98%
    05:00 +10°C° 0 mm 3 mps 743 mmHg 99%
    06:00 +11°C° 0 mm 3 mps 743 mmHg 97%
    07:00 +12°C° 0 mm 4 mps 743 mmHg 95%
    08:00 +13°C° 0 mm 4 mps 743 mmHg 94%
    09:00 +14°C° 0 mm 4 mps 743 mmHg 91%
    10:00 +15°C° 0 mm 4 mps 744 mmHg 88%
    11:00 +15°C° 0 mm 4 mps 744 mmHg 85%
    12:00 +16°C° 0 mm 5 mps 744 mmHg 81%
    13:00 +17°C° 0 mm 5 mps 744 mmHg 78%
    14:00 +19°C° 0 mm 5 mps 744 mmHg 74%
    15:00 +19°C° 0.1 mm 5 mps 744 mmHg 75%
    16:00 +20°C° 0.1 mm 5 mps 744 mmHg 75%
    17:00 +20°C° 0.1 mm 5 mps 744 mmHg 75%
    18:00 +19°C° 0.4 mm 4 mps 744 mmHg 81%
    19:00 +18°C° 0.4 mm 3 mps 744 mmHg 87%
    20:00 +17°C° 0.4 mm 3 mps 744 mmHg 93%
    21:00 +16°C° 0 mm 3 mps 745 mmHg 94%
    22:00 +16°C° 0 mm 3 mps 745 mmHg 95%
    23:00 +14°C° 0 mm 3 mps 745 mmHg 97%

    19 July, Friday

    Time Temperature Precipitation Wind Pressure Humidity
    00:00 +14°C° 0 mm 3 mps 745 mmHg 97%
    01:00 +13°C° 0 mm 3 mps 746 mmHg 97%
    02:00 +13°C° 0 mm 3 mps 746 mmHg 97%
    03:00 +13°C° 0 mm 3 mps 746 mmHg 97%
    04:00 +12°C° 0 mm 3 mps 746 mmHg 97%
    05:00 +12°C° 0 mm 3 mps 746 mmHg 97%
    06:00 +14°C° 0 mm 3 mps 747 mmHg 93%
    07:00 +16°C° 0 mm 3 mps 747 mmHg 88%
    08:00 +18°C° 0 mm 3 mps 747 mmHg 84%
    09:00 +19°C° 0 mm 4 mps 747 mmHg 76%
    10:00 +21°C° 0 mm 4 mps 747 mmHg 68%
    11:00 +23°C° 0 mm 4 mps 748 mmHg 59%
    12:00 +23°C° 0.1 mm 4 mps 748 mmHg 59%
    13:00 +23°C° 0.1 mm 4 mps 748 mmHg 58%
    14:00 +25°C° 0.1 mm 4 mps 748 mmHg 57%
    15:00 +25°C° 0 mm 4 mps 748 mmHg 59%
    16:00 +25°C° 0 mm 4 mps 748 mmHg 60%
    17:00 +23°C° 0 mm 4 mps 748 mmHg 61%
    18:00 +22°C° 0 mm 3 mps 748 mmHg 68%
    19:00 +20°C° 0 mm 2 mps 748 mmHg 75%
    20:00 +18°C° 0 mm 2 mps 748 mmHg 82%
    21:00 +17°C° 0 mm 2 mps 749 mmHg 84%
    22:00 +16°C° 0 mm 1 mps 749 mmHg 86%
    23:00 +15°C° 0 mm 1 mps 749 mmHg 88%

    20 July, Saturday

    Time Temperature Precipitation Wind Pressure Humidity
    00:00 +15°C° 0 mm 1 mps 749 mmHg 87%
    01:00 +15°C° 0 mm 1 mps 749 mmHg 87%
    02:00 +14°C° 0 mm 1 mps 749 mmHg 87%
    03:00 +14°C° 0 mm 1 mps 749 mmHg 87%
    04:00 +14°C° 0 mm 1 mps 750 mmHg 86%
    05:00 +14°C° 0 mm 1 mps 750 mmHg 86%
    06:00 +16°C° 0 mm 1 mps 750 mmHg 79%
    07:00 +19°C° 0 mm 1 mps 750 mmHg 73%
    08:00 +21°C° 0 mm 1 mps 750 mmHg 66%
    09:00 +23°C° 0 mm 1 mps 750 mmHg 62%
    10:00 +25°C° 0 mm 1 mps 750 mmHg 58%
    11:00 +26°C° 0 mm 1 mps 750 mmHg 54%
    12:00 +26°C° 0.2 mm 1 mps 750 mmHg 55%
    13:00 +26°C° 0.2 mm 1 mps 750 mmHg 56%
    14:00 +26°C° 0.2 mm 1 mps 750 mmHg 57%
    15:00 +25°C° 0.1 mm 2 mps 750 mmHg 63%
    16:00 +24°C° 0.1 mm 2 mps 750 mmHg 68%
    17:00 +24°C° 0.1 mm 2 mps 749 mmHg 73%
    18:00 +21°C° 0.1 mm 2 mps 750 mmHg 78%
    19:00 +20°C° 0.1 mm 2 mps 750 mmHg 84%
    20:00 +20°C° 0.1 mm 1 mps 750 mmHg 89%
    21:00 +19°C° 0 mm 1 mps 750 mmHg 90%
    22:00 +18°C° 0 mm 1 mps 750 mmHg 91%
    23:00 +15°C° 0 mm 0 mps 750 mmHg 92%

    21 July, Sunday

    Time Temperature Precipitation Wind Pressure Humidity
    00:00 +15°C° 0 mm 0 mps 750 mmHg 93%
    01:00 +15°C° 0 mm 0 mps 750 mmHg 93%
    02:00 +14°C° 0 mm 0 mps 750 mmHg 93%
    03:00 +14°C° 0 mm 0 mps 750 mmHg 93%
    04:00 +14°C° 0 mm 0 mps 750 mmHg 93%
    05:00 +14°C° 0 mm 0 mps 750 mmHg 94%
    06:00 +16°C° 0 mm 0 mps 750 mmHg 88%
    07:00 +18°C° 0 mm 0 mps 751 mmHg 83%
    08:00 +20°C° 0 mm 0 mps 751 mmHg 78%
    09:00 +21°C° 0.6 mm 0 mps 751 mmHg 74%
    10:00 +23°C° 0.6 mm 0 mps 751 mmHg 70%
    11:00 +24°C° 0.6 mm 0 mps 751 mmHg 65%
    12:00 +25°C° 0.3 mm 0 mps 751 mmHg 61%
    13:00 +25°C° 0.3 mm 0 mps 750 mmHg 56%
    14:00 +28°C° 0.3 mm 1 mps 750 mmHg 52%
    15:00 +26°C° 0 mm 0 mps 750 mmHg 53%
    16:00 +25°C° 0 mm 0 mps 750 mmHg 54%
    17:00 +25°C° 0 mm 0 mps 750 mmHg 55%
    18:00 +23°C° 0.1 mm 0 mps 750 mmHg 62%
    19:00 +23°C° 0.1 mm 1 mps 750 mmHg 70%
    20:00 +21°C° 0.1 mm 1 mps 750 mmHg 78%
    21:00 +21°C° 0.2 mm 1 mps 750 mmHg 79%
    22:00 +20°C° 0.2 mm 1 mps 750 mmHg 81%
    23:00 +20°C° 0.2 mm 1 mps 750 mmHg 83%
    Show more